[keps] orb090716.2l.amsat
Ray Hoad
r.hoad at att.net
Thu Jul 16 16:27:02 PDT 2009
SB KEPS @ AMSAT $ORB09197.N
2Line Orbital Elements 09197.AMSAT
HR AMSAT ORBITAL ELEMENTS FOR AMATEUR SATELLITES IN NASA FORMAT
FROM WA5QGD FORT WORTH,TX July 16, 2009
Send Subscribe/unsubscribe to KEPS at
http://www.amsat.org/mailman/listinfo/keps
BID: ORB09197.N
DECODE 2-LINE ELSETS WITH THE FOLLOWING KEY:
1 AAAAAU 00 0 0 BBBBB.BBBBBBBB .CCCCCCCC 00000-0 00000-0 0 DDDZ
2 AAAAA EEE.EEEE FFF.FFFF GGGGGGG HHH.HHHH III.IIII JJ.JJJJJJJJKKKKKZ
KEY: A-CATALOGNUM B-EPOCHTIME C-DECAY D-ELSETNUM E-INCLINATION F-RAAN
G-ECCENTRICITY H-ARGPERIGEE I-MNANOM J-MNMOTION K-ORBITNUM Z-CHECKSUM
TO ALL RADIO AMATEURS BT
AO-07
1 07530U 74089B 09196.65943590 -.00000027 00000-0 10000-3 0 05315
2 07530 101.4244 220.2889 0011814 211.3598 148.6768 12.53576033586282
FO-29
1 24278U 96046B 09197.65690272 .00000061 00000-0 10185-3 0 863
2 24278 098.5498 067.7272 0349669 274.0697 082.0553 13.52944671637732
SO-33
1 25509U 98061B 09196.50301339 .00000064 00000-0 -17904-5 0 04985
2 25509 031.4344 252.3825 0354757 226.0847 130.9947 14.28259174559880
RS-22
1 27939U 03042A 09197.53291532 .00000046 00000-0 17765-4 0 8411
2 27939 097.9403 071.3284 0014526 043.2667 316.9662 14.63328792309869
VO-52
1 28650U 05017B 09197.36001720 .00000240 00000-0 36955-4 0 2721
2 28650 097.7397 257.9759 0025869 295.4643 064.3883 14.81603180226961
AO-16
1 20439U 90005D 09196.57579306 .00000007 00000-0 18029-4 0 06537
2 20439 098.2805 163.6889 0011954 085.7781 274.4767 14.31828430017211
LO-19
1 20442U 90005G 09197.60629816 .00000006 00000-0 17302-4 0 5685
2 20442 098.2435 171.8210 0012893 081.4140 278.8516 14.32063720 17526
AO-27
1 22825U 93061C 09197.47813321 -.00000007 00000-0 14019-4 0 2915
2 22825 098.4374 149.9809 0008671 171.7942 188.3405 14.29269119824095
IO-26
1 22826U 93061D 09196.62325548 -.00000006 00000-0 14340-4 0 00207
2 22826 098.4314 149.8898 0008999 170.1770 189.9589 14.29521242824078
GO-32
1 25397U 98043D 09196.54666860 -.00000142 00000-0 -44697-4 0 09438
2 25397 098.3247 217.3676 0001832 136.3774 223.7571 14.23160405572162
NO-44
1 26931U 01043C 09197.73858712 -.00000246 00000-0 -63865-4 0 2175
2 26931 067.0535 348.2105 0006013 277.9024 082.1401 14.29560233406802
SO-50
1 27607U 02058C 09196.73287653 .00000054 00000-0 30357-4 0 09365
2 27607 064.5605 298.3927 0064277 198.8453 161.0290 14.71447623352877
CO-55
1 27844U 03031E 09197.00946348 .00000043 00000-0 40319-4 0 6223
2 27844 098.7100 205.7647 0010945 063.3732 296.8567 14.20646846313355
CO-57
1 27848U 03031J 09196.56838422 .00000004 00000-0 22245-4 0 5707
2 27848 098.7142 204.3921 0010765 066.9535 293.2786 14.20447519313254
AO-51
1 28375U 04025K 09196.57956979 -.00000004 00000-0 11267-4 0 04382
2 28375 098.0514 204.5261 0085250 039.1664 321.5655 14.40646911265043
CO-56
1 28941U 06005C 09197.61192874 .00065982 41816-5 18988-3 0 2602
2 28941 098.1367 017.6655 0074803 021.2197 339.2012 15.88489636191913
GENESAT1
1 29655U 06058C 09197.77349796 .00010275 00000-0 99577-4 0 7583
2 29655 040.0248 357.8560 0003440 331.5629 028.4997 15.66172288147110
CP3
1 31129U 07012N 09197.66336730 .00000093 00000-0 32213-4 0 680
2 31129 097.9890 249.3305 0101919 193.2345 166.6172 14.52148527119160
CO-65
1 32785U 08021C 09196.55955078 .00000331 00000-0 49050-4 0 04203
2 32785 097.9440 260.2912 0014173 302.8595 057.1266 14.81500483065642
KKS-1
1 33493U 09002B 09197.69792341 .00000234 00000-0 37420-4 0 5726
2 33493 098.0591 310.0398 0020933 143.2337 217.0324 14.80699615 25836
SOHLA-1
1 33496U 09002E 09197.87143369 -.00000004 00000-0 74674-5 0 5368
2 33496 098.0399 306.7198 0006283 177.8401 182.2823 14.69439792 25632
NOAA-10
1 16969U 86073A 09197.10755942 -.00000002 00000-0 17096-4 0 6867
2 16969 098.6895 223.5960 0013050 110.6417 249.6189 14.27390392187638
NOAA-11
1 19531U 88089A 09197.27166061 -.00000191 00000-0 -76300-4 0 7066
2 19531 098.7834 286.7767 0012093 029.1127 331.0693 14.14898348 73634
NOAA-12
1 21263U 91032A 09197.58564359 .00000001 00000-0 19407-4 0 1910
2 21263 098.7709 205.6581 0013564 062.4110 297.8444 14.25585215944582
MET-3/5
1 21655U 91056A 09196.94157113 .00000051 00000-0 10000-3 0 06410
2 21655 082.5518 186.1810 0014645 105.0684 255.2061 13.17019590861416
MET-2/21
1 22782U 93055A 09196.81550733 .00000038 00000-0 21048-4 0 05121
2 22782 082.5489 159.3006 0020684 266.8064 093.0727 13.83636369801561
OKEAN-4
1 23317U 94066A 09197.72593640 .00000030 00000-0 79997-6 0 9634
2 23317 082.5422 306.9215 0020349 267.8669 092.0235 14.82708006796749
NOAA-14
1 23455U 94089A 09197.39977262 .00000237 00000-0 14903-3 0 6900
2 23455 098.9078 274.9770 0010435 107.1838 253.0471 14.13767966750058
NOAA-15
1 25338U 98030A 09197.54814028 .00000021 00000-0 27368-4 0 72
2 25338 098.5851 186.1124 0010166 338.6261 021.4475 14.24772942580957
RESURS
1 25394U 98043A 09197.66758381 -.00000009 00000-0 13744-4 0 2612
2 25394 098.3362 228.5120 0002168 104.0693 256.0727 14.24186064572599
FENGYUN1
1 25730U 99025A 09197.77510606 .00000171 00000-0 12538-3 0 8046
2 25730 098.7549 167.0506 0022022 128.2420 232.0738 14.07913943524482
OKEAN-0
1 25860U 99039A 09197.77733485 .00000001 00000-0 74864-5 0 7321
2 25860 097.7875 177.7829 0001899 076.7906 283.3513 14.73580211537506
NOAA-16
1 26536U 00055A 09197.54694152 .00000059 00000-0 57137-4 0 4855
2 26536 099.1762 201.9237 0010305 194.1578 165.9292 14.12526797454445
NOAA-17
1 27453U 02032A 09197.43996327 -.00000085 00000-0 -18781-4 0 4862
2 27453 098.4815 255.5003 0012398 043.0470 317.1685 14.24076237366911
NOAA-18
1 28654U 05018A 09197.39871383 .00000339 00000-0 21243-3 0 9773
2 28654 098.9066 140.4122 0013255 281.9699 077.9986 14.11271872214073
NOAA-19
1 33591U 09005A 09197.45596384 .00000134 00000-0 98643-4 0 1797
2 33591 098.7466 142.4567 0014456 156.4982 203.6831 14.10972525 22561
HUBBLE
1 20580U 90037B 09194.51349712 .00000309 00000-0 10848-4 0 04205
2 20580 028.4709 290.4849 0003571 201.0834 158.9591 15.00815143853818
ISS
1 25544U 98067A 09197.45336425 .00009883 00000-0 70929-4 0 2271
2 25544 051.6385 156.5983 0007078 231.3404 224.6831 15.74393905610566
CO-58
1 28895U 05043F 09196.23566075 -.00000043 00000-0 56632-6 0 03487
2 28895 098.0529 086.0641 0016581 260.2683 099.6639 14.59780770197827
FALCON
1 30776U 07006E 09197.58758887 .00000234 00000-0 19960-4 0 6140
2 30776 035.4344 281.0312 0000477 232.3684 127.6990 15.03270605129523
MAST
1 31126U 07012K 09197.70466046 -.00000057 00000-0 -23388-5 0 6408
2 31126 097.9864 251.1569 0094350 187.6988 172.2744 14.53506859119324
CAPE1
1 31130U 07012P 09197.70372096 -.00000167 00000-0 -27649-4 0 6498
2 31130 097.9865 249.2722 0102719 193.1079 166.7444 14.52072333118970
COMPASS
1 32787U 08021E 09196.33139446 .00000080 00000-0 17010-4 0 04105
2 32787 097.9417 259.9173 0014925 304.0241 055.9549 14.81625853065615
AAUSAT2
1 32788U 08021F 09197.17480579 .00000093 00000-0 18627-4 0 4081
2 32788 097.9406 260.8160 0014503 302.4572 057.5236 14.81750866 65740
DO-64
1 32789U 08021G 09196.72395769 .00000201 00000-0 32261-4 0 04236
2 32789 097.9452 260.5485 0014817 302.4727 057.5047 14.81743711065672
CO-66
1 32791U 08021J 09197.72833145 -.00000145 00000-0 -11608-4 0 4045
2 32791 097.9404 261.3336 0015378 297.9419 062.0229 14.81453236 65780
RS-30
1 32953U 08025A 09197.16608759 .00000010 00000-0 00000 0 0 3551
2 32953 082.4993 238.5918 0020509 113.6973 246.6259 12.43002392 51995
TACSAT-3
1 35001U 09028A 09196.95976248 .00001640 00000-0 47210-4 0 00690
2 35001 040.4561 068.5832 0025058 012.4092 347.7334 15.38923799008781
PHARMSAT
1 35002U 09028B 09196.80144092 .00001374 00000-0 39540-4 0 498
2 35002 040.4687 069.1858 0027584 015.8288 344.3381 15.39690040 8759
HAWKSAT1
1 35003U 09028C 09197.76466102 .00001042 00000-0 31204-4 0 518
2 35003 040.4708 063.2934 0028878 025.1429 335.0823 15.39934908 8912
CP6
1 35004U 09028D 09197.82263601 .00002865 00000-0 74588-4 0 454
2 35004 040.4627 062.8086 0027570 026.0091 334.2133 15.40216516 8914
AEROCUB3
1 35005U 09028E 09196.92170798 .00003117 00000-0 81056-4 0 00526
2 35005 040.4738 068.3624 0028221 017.0895 343.0877 15.40040089008770
/EX
More information about the Keps
mailing list